This is the latest recevied weather packets stored in our database for station/object NZ3C. If no packets are shown the sender has not sent any weather packets the latest 10 day(s).
| Time | Temp. | Humidity | Pressure | Rain* | Wind** | Luminosity | Snow |
|---|---|---|---|---|---|---|---|
| 1777563841 | 18.33° C | 77% | 1012.1 hPa | 0 mm | - | 197 W/m² | - |
| 1777563539 | 18.33° C | 81% | 1012 hPa | 0 mm | - | 238 W/m² | - |
| 1777563238 | 17.78° C | 81% | 1012.3 hPa | 0 mm | - | 235 W/m² | - |
| 1777562935 | 17.78° C | 79% | 1012.2 hPa | 0 mm | - | 200 W/m² | - |
| 1777562630 | 17.78° C | 80% | 1012.1 hPa | 0 mm | - | 171 W/m² | - |
| 1777562330 | 17.78° C | 77% | 1012.5 hPa | 0 mm | - | 139 W/m² | - |
| 1777562026 | 17.78° C | 77% | 1012.4 hPa | 0 mm | - | 151 W/m² | - |
| 1777561724 | 17.78° C | 81% | 1011.9 hPa | 0 mm | - | 232 W/m² | - |
| 1777561418 | 17.78° C | 80% | 1012.1 hPa | 0 mm | - | 155 W/m² | - |
| 1777561114 | 17.78° C | 82% | 1012 hPa | 0 mm | - | 106 W/m² | - |
| 1777560810 | 17.78° C | 77% | 1012.2 hPa | 0 mm | - | 137 W/m² | - |
| 1777560508 | 17.78° C | 82% | 1011.8 hPa | 0 mm | - | 165 W/m² | - |
| 1777560205 | 17.78° C | 78% | 1011.6 hPa | 0 mm | - | 165 W/m² | - |
| 1777559902 | 17.78° C | 81% | 1011.6 hPa | 0 mm | - | 243 W/m² | - |
| 1777559602 | 17.78° C | 82% | 1011.1 hPa | 0 mm | - | 229 W/m² | - |
| 1777559301 | 17.78° C | 82% | 1011.3 hPa | 0 mm | - | 199 W/m² | - |
| 1777558996 | 17.78° C | 80% | 1010.7 hPa | 0 mm | - | 215 W/m² | - |
| 1777558692 | 17.22° C | 81% | 1010.6 hPa | 0 mm | - | 255 W/m² | - |
| 1777558388 | 17.22° C | 80% | 1010.5 hPa | 0 mm | - | 236 W/m² | - |
| 1777558084 | 17.22° C | 83% | 1010.3 hPa | 0 mm | - | 238 W/m² | - |
| 1777557781 | 17.22° C | 84% | 1009.9 hPa | 0 mm | - | 208 W/m² | - |
| 1777557477 | 16.67° C | 84% | 1009.7 hPa | 0 mm | - | 206 W/m² | - |
| 1777557174 | 16.67° C | 85% | 1009.6 hPa | 0 mm | - | 210 W/m² | - |
| 1777556870 | 16.67° C | 84% | 1009.7 hPa | 0 mm | - | 201 W/m² | - |
| 1777556566 | 16.67° C | 86% | 1009.6 hPa | 1.78 mm | - | 186 W/m² | - |
* Rain latest hour (hover to see other rain measurements)
** Current wind speed in m/s (hover to see current wind gust speed)